Estherville, IA

4:44 PM CDT on August 24, 2016 (GMT -0500)
Estherville Municipal

Weather History for KEST - February, 2013

Change the Weather History Date:

Wednesday, February 27, 2013

  Actual Average Record
Temperature  
Mean Temperature 27 °F 25 °F  
Max Temperature 33 °F 34 °F 60 °F (1976)
Min Temperature 20 °F 16 °F -14 °F (2015)
Degree Days  
Heating Degree Days 38 40  
Month to date heating degree days 1202 1207  
Since 1 July heating degree days 5596 5878  
Cooling Degree Days 0 0  
Month to date cooling degree days 0 0  
Year to date cooling degree days 0 0  
Moisture  
Dew Point 19 °F    
Average Humidity 74    
Maximum Humidity 84    
Minimum Humidity 63    
Precipitation  
Precipitation 0.00 in 0.01 in 0.76 in (1981)
Month to date precipitation 0.44 0.34  
Sea Level Pressure  
Sea Level Pressure 29.95 in    
Wind  
Wind Speed 20 mph (NNW)    
Max Wind Speed 31 mph    
Max Gust Speed 40 mph    
Visibility 8 miles    
Events      
T = Trace of Precipitation, MM = Missing Value Source: NWS Daily Summary

Daily Weather History Graph

Daily Weather History Graph

Search for Another Location

Airport or City:

Trip Planner

Search our weather history database for the weather conditions in past years. The results will help you decide how hot, cold, wet, or windy it might be!

Date:

Astronomy

Feb. 27, 2013 Rise Set
Actual Time 6:58 AM CST 6:05 PM CST
Civil Twilight 6:29 AM CST 6:34 PM CST
Nautical Twilight 5:56 AM CST 7:07 PM CST
Astronomical Twilight 5:23 AM CST 7:40 PM CST
Moon 8:34 PM CST (2/27) 7:29 AM CST (2/27)
Length of Visible Light 12h 05m
Length of Day
11h 07m
Waning Gibbous, 96% of the Moon is Illuminated
Feb 27
Waning Gibbous
Mar 4
Last Quarter
Mar 11
New
Mar 19
First Quarter
Mar 27
Full

Hourly Weather History & Observations

Time (CST) Temp. Windchill Dew Point Humidity Pressure Visibility Wind Dir Wind Speed Gust Speed Precip Events Conditions
12:52 AM 21.0 °F 6.6 °F 17.1 °F 85% 29.91 in 5.0 mi NNW 17.3 mph - N/A   Clear
1:52 AM 21.0 °F 5.4 °F 17.1 °F 85% 29.91 in 6.0 mi NNW 20.7 mph - N/A   Clear
2:52 AM 21.0 °F 5.7 °F 17.1 °F 85% 29.91 in 7.0 mi NNW 19.6 mph - N/A   Clear
3:52 AM 19.9 °F 4.3 °F 16.0 °F 85% 29.91 in 7.0 mi NNW 19.6 mph - N/A   Partly Cloudy
4:13 AM 19.4 °F 4.1 °F 15.8 °F 86% 29.84 in 7.0 mi NNW 18.4 mph - N/A   Mostly Cloudy
4:52 AM 21.0 °F 7.1 °F 17.1 °F 85% 29.91 in 8.0 mi NNW 16.1 mph - N/A   Overcast
5:52 AM 21.0 °F 6.2 °F 17.1 °F 85% 29.91 in 8.0 mi NNW 18.4 mph - N/A   Overcast
6:19 AM 21.2 °F 6.4 °F 17.6 °F 86% 29.86 in 8.0 mi NNW 18.4 mph 25.3 mph N/A   Overcast
6:52 AM 21.0 °F 6.2 °F 17.1 °F 85% 29.92 in 8.0 mi NNW 18.4 mph - N/A   Overcast
7:52 AM 21.9 °F 7.3 °F 17.1 °F 82% 29.94 in 7.0 mi NNW 18.4 mph 25.3 mph N/A   Overcast
8:52 AM 21.9 °F 6.9 °F 17.1 °F 82% 29.95 in 7.0 mi NNW 19.6 mph - N/A   Overcast
9:52 AM 23.0 °F 8.3 °F 17.1 °F 78% 29.96 in 9.0 mi NNW 19.6 mph - N/A   Overcast
10:52 AM 24.1 °F 9.8 °F 18.0 °F 77% 29.96 in 9.0 mi NNW 19.6 mph - N/A   Overcast
11:13 AM 24.8 °F 10.3 °F 19.4 °F 80% 29.90 in 9.0 mi NNW 20.7 mph 28.8 mph N/A   Scattered Clouds
11:52 AM 27.0 °F 13.9 °F 21.0 °F 78% 29.95 in 9.0 mi NNW 18.4 mph 28.8 mph N/A   Clear
12:52 PM 30.0 °F 17.9 °F 23.0 °F 75% 29.95 in 10.0 mi NNW 18.4 mph 25.3 mph N/A   Clear
1:52 PM 30.9 °F 18.7 °F 23.0 °F 72% 29.95 in 10.0 mi NNW 19.6 mph - N/A   Clear
2:52 PM 30.9 °F 16.9 °F 23.0 °F 72% 29.95 in 10.0 mi NNW 26.5 mph 32.2 mph N/A   Clear
3:52 PM 32.0 °F 18.9 °F 23.0 °F 69% 29.96 in 10.0 mi NNW 24.2 mph 32.2 mph N/A   Clear
4:52 PM 32.0 °F 20.1 °F 21.9 °F 66% 29.97 in 10.0 mi NNW 19.6 mph 28.8 mph N/A   Clear
5:52 PM 28.0 °F 13.6 °F 21.9 °F 78% 29.99 in 8.0 mi NNW 24.2 mph 35.7 mph N/A   Clear
6:52 PM 24.1 °F 8.3 °F 19.0 °F 81% 30.02 in 9.0 mi NNW 24.2 mph - N/A   Clear
8:52 PM 21.0 °F 5.4 °F 17.1 °F 85% 30.05 in 9.0 mi NNW 20.7 mph - N/A   Clear
9:52 PM 19.9 °F 4.8 °F 16.0 °F 85% 30.07 in 9.0 mi NNW 18.4 mph - N/A   Clear
10:52 PM 21.0 °F 6.6 °F 17.1 °F 85% 30.07 in 10.0 mi NNW 17.3 mph - N/A   Clear
11:52 PM 21.0 °F 7.6 °F 18.0 °F 88% 30.08 in 8.0 mi NNW 15.0 mph - N/A   Clear